Hourly Weather Roundup
Issued by NWS Central Illinois

Home | Current Version | Previous Version | Text Only | Print | Product List | Glossary On
Versions: 1 2 3 4 5 6 7 8 9 10 11 12 13 14 15 16 17 18 19 20 21 22 23 24 25 26 27 28 29 30 31 32 33 34 35 36 37 38 39 40 41 42 43 44 45 46 47 48 49 50
000
NZUS43 KILX 200810
HWRILX

AREA WEATHER ROUNDUP
NATIONAL WEATHER SERVICE, LINCOLN IL
300 AM CDT SAT SEP 20 2014


CITY           SKY/WX    TMP DP  RH WIND       PRES   REMARKS
BLOOMINGTON    CLEAR     58  54  86 S8        29.99S
CHAMPAIGN      CLEAR     58  53  84 S8        30.00R
DECATUR        CLEAR     60  54  80 S8        30.00R
FLORA          CLEAR     55  55  99 CALM      30.02R
GALESBURG      MOCLDY    60  58  91 S7        29.93F
JACKSONVILLE   CLEAR     64  59  86 S6        29.98S
LACON          PTCLDY    60  55  81 S6        29.94F
LAWRENCEVILLE  CLEAR     54  52  93 CALM      30.02S FOG
LITCHFIELD     CLEAR     55  54  97 S3        30.00R
$$


CITY           SKY/WX    TMP DP  RH WIND       PRES   REMARKS
LINCOLN        CLEAR     58  54  86 S6        29.96S
MACOMB         PTCLDY    60  58  92 S5        29.97S
MATTOON        CLEAR     59  54  83 S7        30.00R
MT CARMEL AP   CLEAR     59  55  88 CALM      30.01F
OLNEY-NOBLE AP CLEAR     52  52 100 CALM      30.01S
PARIS          CLEAR     53  53  99 CALM      30.02R
PEORIA         PTCLDY    61  54  77 S6        29.96S
PONTIAC        CLEAR     57  54  88 S3        29.97R
RANTOUL        CLEAR     56  51  83 S5        30.00R
ROBINSON       CLEAR     53  52  99 CALM      30.02S
SPRINGFIELD    CLEAR     63  56  78 S7        29.99R
TAYLORVILLE    CLEAR     57  54  88 S7        30.00R
$$

...REGIONAL REPORTS...


CITY           SKY/WX    TMP DP  RH WIND       PRES   REMARKS
CHICAGO O`HARE MOCLDY    63  51  65 SW13G22   29.92F
KANKAKEE       CLEAR     56  52  88 S7        29.99S
MOLINE         MOCLDY    64  57  78 VRB5      29.90F
MOUNT VERNON   CLEAR     52  48  87 CALM      30.02S
PITTSFIELD     CLEAR     63  59  87 SW5       29.99S
QUINCY         PTCLDY    62  58  86 S8        29.95S
ROCKFORD       MOCLDY    61  54  77 S13       29.91F
$$


CITY           SKY/WX    TMP DP  RH WIND       PRES   REMARKS
BURLINGTON     MOCLDY    63  59  87 S8        29.91F
CEDAR RAPIDS   CLOUDY    65  63  93 S14       29.86F
DES MOINES     CLOUDY    71  66  84 N9        29.87R
KIRKSVILLE     CLEAR     65  62  90 S9        29.94S
OTTUMWA        CLOUDY    66  62  87 S8        29.88S
ST LOUIS       PTCLDY    68  59  73 S3        29.99R
$$


CITY           SKY/WX    TMP DP  RH WIND       PRES   REMARKS
TERRE HAUTE    CLEAR     52  50  93 CALM      30.01F
EVANSVILLE     CLEAR     61  57  87 CALM      30.02F
INDIANAPOLIS   CLEAR     56  51  84 S5        30.01F
LAFAYETTE      CLEAR     56  51  84 CALM      30.00R
MADISON        CLOUDY    66  57  72 SW9       29.83R
MILWAUKEE      MOCLDY    65  52  62 SW23G30   29.83F
$$




USA.gov is the U.S. government's official web portal to all federal, state and local government web resources and services.